This demonstration page uses our WeatherBlox Daily Observations layout. Learn more.

Left ArrowRight Arrow

Hourly Observations for September 25, 2015

Temp ( °F °C ) Dew Point ( °F °C ) Humidity (%) Winds ( mph kmh ) Pressure ( in mb ) Visibility ( mi km ) Precip ( " mm )
12:53 am 00:53 Clear 56 13.3 54 12.2 93 93 Calm 30.19 1022 10 16.0934 0 0
1:53 am 01:53 Clear 54 12.2 52 11.1 93 93 Calm 30.18 1022 10 16.0934 0 0
2:53 am 02:53 Clear 53 11.7 51 10.6 93 93 Calm 30.16 1021 10 16.0934 0 0
3:53 am 03:53 Clear 54 12.2 52 11.1 93 93 Calm 30.15 1021 10 16.0934 0 0
4:53 am 04:53 Clear 52 11.1 51 10.6 97 97 Calm 30.15 1021 10 16.0934 0 0
5:53 am 05:53 Clear 52 11.1 51 10.6 97 97 Calm 30.16 1021 10 16.0934 0 0
6:53 am 06:53 Clear 51 10.6 50 10 96 96 Calm 30.17 1022 10 16.0934 0 0
7:53 am 07:53 Sunny 50 10 49 9.4 96 96 Calm 30.19 1022 9 14.48406 0 0
8:53 am 08:53 Sunny 60 15.6 55 12.8 84 84 ENE 3 6 30.2 1023 10 16.0934 0 0
9:53 am 09:53 Sunny 65 18.3 54 12.2 68 68 ENE 6 9 30.2 1023 10 16.0934 0 0
10:53 am 10:53 Sunny 70 21.1 53 11.7 55 55 E 8 13 30.19 1023 10 16.0934 0 0
11:53 am 11:53 Sunny 74 23.3 52 11.1 46 46 E 10 17 30.19 1022 10 16.0934 0 0
12:53 pm 12:53 Sunny 77 25 51 10.6 40 40 ENE 10 17 30.18 1022 10 16.0934 0 0
1:53 pm 13:53 Sunny 77 25 49 9.4 37 37 E 9 15 30.17 1022 10 16.0934 0 0
2:53 pm 14:53 Sunny 79 26.1 50 10 36 36 E 6 9 30.15 1021 10 16.0934 0 0
3:53 pm 15:53 Sunny 77 25 49 9.4 37 37 E 13 20 30.15 1021 10 16.0934 0 0
4:53 pm 16:53 Sunny 75 23.9 48 8.9 39 39 VRB 5 7 30.14 1021 10 16.0934 0 0
5:53 pm 17:53 Sunny 74 23.3 48 8.9 40 40 ESE 6 9 30.16 1021 10 16.0934 0 0
6:53 pm 18:53 Sunny 72 22.2 48 8.9 43 43 VRB 3 6 30.17 1022 10 16.0934 0 0
7:53 pm 19:53 Clear 69 20.6 49 9.4 49 49 ESE 6 9 30.18 1022 10 16.0934 0 0
8:53 pm 20:53 Clear 67 19.4 51 10.6 57 57 E 6 9 30.19 1022 10 16.0934 0 0
9:53 pm 21:53 Mostly Cloudy 65 18.3 53 11.7 66 66 E 3 6 30.2 1023 10 16.0934 0 0
10:53 pm 22:53 Mostly Clear 67 19.4 53 11.7 61 61 E 7 11 30.21 1023 10 16.0934 0 0
11:53 pm 23:53 Clear 66 18.9 53 11.7 63 63 ESE 5 7 30.21 1023 10 16.0934 0 0

Powered by AerisWeather